www.pogodaiklimat.ru

Погода и климат >> Архив погоды >> Канада >> Нунавут >> Бейкер-Лейк


ПОГОДА в Бейкер-Лейке

  • Прогноз погоды в Бейкер-Лейке
  • Монитор погоды в Бейкер-Лейке

АРХИВ ПОГОДЫ в Бейкер-Лейке

Время (UTC), дата Ветер
(напр.,м/с)
 
Видим.   Явления Облачность Т
(С)
Тd
(С)
f
(%)
Тe
(С)
Тes
(С)
Комфортность P
(гПа)
Po
(гПа)
Тmin
(С)
Tmax
(С)
R
(мм)
R24
(мм)
S
(см)
12 18.03 СВ 1 16 км слаб. снег 10/10 100 м
[]
-21.8 -23.9 83 -25 -25 1021.7 1019.2 -24.6 -21.8 0.0 21
15 18.03 С 1 9000 м 10/10 100 м
[]
-21.1 -23.5 81 -22 -22 1020.9 1018.4
18 18.03 Ю 2 16 км слаб. снег 10/10 200 м
[Sc]
-19.9 -22.3 81 -26 -26 1019.6 1017.1 -24.6 -19.9 0.0 21
21 18.03 Ю 3 24 км 10/10 300 м
[]
-18.6 -20.9 82 -26 -26 1016.4 1013.9
00 19.03 Ю 4 30 км слаб. снег 10/10 300 м
[Sc]
-17.3 -19.5 83 -26 -26 1012.5 1010.0 -22.0 -17.3 0.0 21
03 19.03 Ю 5 16 км 10/10 600 м
[]
-15.4 -17.4 85 -24 -24 1007.7 1005.2
06 19.03 Ю 1 16 км слаб. снег 10/10 300 м
[St Ac trans]
-14.3 -16.2 85 -17 -17 1004.2 1001.8 -22.0 -14.3 0.6 22
09 19.03 В 6 16 км 10/10 600 м
[]
-14.9 -17.1 83 -24 -24 1004.6 1002.2
12 19.03 СВ 5 16 км слаб. снег 9/9 600 м
[Cb calv Ac trans]
-15.8 -18.8 78 -25 -25 1008.9 1006.4 -14.3 0.0 22
15 19.03 СВ 4 30 км 1/1 1500 м
[]
-20.2 -24.5 68 -29 -28 1014.2 1011.7
18 19.03 СВ 5 30 км {снег} 6/0
[Ci fib]
-19.6 -24.0 68 -29 -27 1017.7 1015.2 0.0 22
21 19.03 В 2 30 км 5/0
[]
-19.5 -24.0 67 -25 -23 1020.8 1018.3
00 20.03 В 2 30 км 3/1 1500 м
[Sc Ci fib]
-22.7 -25.8 76 -28 -28 1020.8 1018.3 -15.8
03 20.03 ЮВ 2 24 км 4/4 1500 м
[]
-25.1 -27.8 78 -31 -31 опасность
обморожения
1019.0 1016.5
06 20.03 Ю 3 24 км 6/3 300 м
[Sc Ac As]
-21.4 -24.4 77 -29 -29 1016.8 1014.3 11
09 20.03 Ю 6 24 км 8/8 300 м
[]
-17.8 -20.3 81 -28 -28 1010.7 1008.2
12 20.03 ЮВ 5 4000 м ледяные иглы {метель} 10/10 300 м
[Sc]
-14.5 -16.2 87 -23 -23 1004.8 1002.3 -25.4 0.2 22
15 20.03 ЮВ 3 4800 м 10/10 300 м
[]
-10.4 -11.9 89 -16 -16 999.3 996.9
18 20.03 С 1 30 км {снег} 10/10 300 м
[Sc]
-7.8 -9.8 86 -8 -8 997.2 994.8 -25.4 -7.5 4 23
21 20.03 СЗ 8 24 км 10/10 300 м
[]
-5.1 -7.2 85 -14 -14 997.3 994.9
00 21.03 СЗ 14 1600 м слаб. снег 9/9 200 м
[Sc Ac As]
-9.8 -11.6 87 -22 -22 999.9 997.5 -21.4 -5.1 0.0 23
03 21.03 СЗ 17 600 м 9/9 100 м
[]
-13.8 -16.0 83 -28 -28 1003.1 1000.7
06 21.03 СЗ 16 4000 м ледяные иглы {снег, метель} 8/8 600 м
[Sc]
-14.7 -17.1 82 -29 -29 1007.7 1005.3 -21.4 -5.1 0.0 23
09 21.03 СЗ 16 8000 м 9/9 600 м
[]
-15.6 -18.2 80 -30 -30 1011.1 1008.7
12 21.03 СЗ 12 4800 м ледяные иглы {снег, метель} 10/5 1000 м
[Sc Ac trans]
-16.6 -19.5 78 -30 -30 1014.5 1012.1 -5.1 0.0 23
15 21.03 С 9 9000 м 10/10 300 м
[]
-15.7 -18.6 78 -28 -28 1017.6 1015.1
18 21.03 СЗ 10 24 км ледяные иглы {снег} 1/1 200 м
[Sc]
-15.2 -18.7 75 -27 -27 1019.6 1017.1 0.0 23
21 21.03 СЗ 13 24 км 4/4 200 м
[]
-16.6 -20.2 74 -30 -30 1020.9 1018.4
00 22.03 СЗ 2 30 км ледяные иглы {снег} 9/1 600 м
[Sc Ci fib]
-19.1 -22.1 77 -25 -25 1022.5 1020.0 -14.6 0.0 23
03 22.03 СВ 1 24 км 8/8 300 м
[]
-20.6 -23.5 77 -24 -24 1021.4 1018.9
06 22.03 Ю 1 24 км ледяные иглы {снег} 8/8 300 м
[Sc]
-19.2 -22.0 78 -22 -22 1019.0 1016.5 0.0 103
09 22.03 ЮВ 6 24 км 8/8 300 м
[]
-16.9 -19.2 82 -27 -27 1013.6 1011.1
12 22.03 ЮВ 7 12 км ледяные иглы {снег} 9/3 100 м
[St Ac trans]
-15.5 -17.7 83 -26 -26 1004.7 1002.3 -20.8 0.0
15 22.03 ЮЗ 6 30 км 10/10 600 м
[]
-11.0 -13.2 84
18 22.03 З 7 30 км слаб. снег 10/9 600 м
[Sc Ac trans]
-6.5 -9.0 82 -15 -15 993.2 990.8 -20.8 -6.5 0.0 22
21 22.03 С 13 8000 м 10/10 100 м
[]
-9.6 -12.2 81 -21 -21 994.6 992.2
00 23.03 С 17 600 м ледяные иглы {снег} ясно -17.2 -19.7 81 -33 -33 опасность
обморожения
1002.1 999.7 -19.5 -6.5 0.0 22
03 23.03 С 17 400 м 4/4 100 м
[]
-20.8 -23.4 80 -38 -38 опасность
обморожения
1007.1 1004.7
09 23.03 СЗ 14 400 м 5/5 100 м
[]
-25.1 -28.2 75 -43 -43 опасность
обморожения
1015.7 1013.2
12 23.03 С 20 200 м ледяные иглы {снег, метель} 5/5 100 м
[Frnb]
-28.1 -31.2 75 -49 -49 опасность
обморожения
1019.3 1016.8 0.0
15 23.03 СЗ 15 200 м ясно -28.3 -31.7 72 -47 -47 опасность
обморожения
1024.1 1021.6
18 23.03 СЗ 14 200 м ледяные иглы {снег} ясно -27.7 -31.3 71 -46 -46 опасность
обморожения
1027.2 1024.6 0.0 22
21 23.03 СЗ 17 200 м ясно -25.5 -28.8 74 -44 -44 опасность
обморожения
1027.2 1024.7
00 24.03 СЗ 12 200 м ледяные иглы {метель} ясно -25.5 -28.5 76 -42 -42 опасность
обморожения
1028.5 1025.9 -25.1 0.0 22
03 24.03 СЗ 14 400 м 3/3 100 м
[]
-25.7 -28.8 75 -43 -43 опасность
обморожения
1029.2 1026.6
06 24.03 1200 м ледяные иглы {снег, метель} н/о -26.0 -29.1 75 -41 -41 опасность
обморожения
1029.0 1026.4 0.0 123
09 24.03 СЗ 12 1200 м 1/1 100 м
[]
-25.6 -28.7 75 -42 -42 опасность
обморожения
1029.7 1027.1
12 24.03 СЗ 11 1000 м ледяные иглы {снег, метель} 3/3 100 м
[Frnb]
-26.8 -30.0 74 -43 -43 опасность
обморожения
1030.5 1027.9 -26.9 0.0 22
15 24.03 СЗ 15 400 м ясно -26.2 -29.6 73 -45 -45 опасность
обморожения
1029.1 1026.5
18 24.03 400 м ледяные иглы {снег, метель} н/о -23.5 -27.1 72 -41 -41 опасность
обморожения
1028.2 1025.7 -27.6 -23.5 0.0 22
21 24.03 СЗ 13 400 м ясно -21.8 -25.0 75 -37 -37 опасность
обморожения
1028.1 1025.6
00 25.03 400 м ледяные иглы {снег, метель} н/о -21.8 -24.6 78 -39 -39 опасность
обморожения
1025.7 1023.2 -26.9 -21.2 0.0 22
03 25.03 СЗ 16 600 м 1/1 100 м
[]
-22.4 -25.2 78 -40 -40 опасность
обморожения
1025.6 1023.1
06 25.03 ЮЗ 2 11 км ледяные иглы {снег, метель} 1/0
[Ci fib]
-23.2 -26.4 75 -28 -28 1026.6 1024.1 -26.9 -21.2 0.0 3

 

Местоположение метеостанции Бейкер-Лейк (Нунавут, Канада): широта 64.30 долгота -96.06 высота над уровнем моря 18 м.

В архиве по умолчанию представлена погода в Бейкер-Лейке за последнюю неделю. Архивные данные за месяц целиком и за предыдущие месяцы, начиная с января 2011 года, Вы можете получить, выбрав интересующий диапазон дат из раскрывающегося списка и нажав кнопку "Ввод!".


*Определитесь, кто Вы:
робот инопланетянин человек

Внимание! Время в таблицах - всемирное. Для получения местного времени необходимо прибавить поправку, которая равна -6 ч.

Смотрите также архив погоды в соседних городах и на ближайших метеорологических станциях:

Погода в Бейкер Лейк (Нунавут, Канада) (4 км)
Погода в Глеичене (Альберта, Канада) (199 км)
Погода в Ранкин-Инлете (Нунавут, Канада) (256 км)
Погода в Ки Лейк 2 (Саскачеван, Канада) (302 км)
Погода на Озере Робертсон (Нунавут, Канада) (314 км)
Погода в Вейджер Бэй (Нунавут, Канада) (357 км)
Погода в Арвиате (Нунавут, Канада) (370 км)
Погода в Арвиате (Нунавут, Канада) (370 км)
Погода в Аэропорту Арвиат (Нунавут, Канада) (371 км)
Погода на Реке Ханбери (Северо-Западные территории, Канада) (451 км)

Пояснения к столбцам:

Ветер - указаны скорость ветра в м/с - средняя за 10 мин, порывы в срок и между сроками (в фигурных скобках) и направление, откуда дует ветер: С - северный, СВ - северо-восточный, В - восточный, ЮВ - юго-восточный, Ю - южный, ЮЗ - юго-западный, З - западный, СЗ - северо-западный.
Видимость - горизонтальная дальность видимости в метрах или километрах. При видимости от 1 до 10 км при отсутствии осадков обычно наблюдается дымка, при ухудшении видимости до 1 км и менее - туман. В сухую погоду видимость может ухудшаться дымом, пылью или мглою.
Явления - указаны атмосферные явления, наблюдавшиеся в срок или в последний час перед сроком; фигурными скобками обозначены явления, наблюдавшиеся между сроками (за 1-3 часа до срока); квадратными скобками обозначены град или гололедные отложения с указанием их диаметра в мм.
Облачность - указаны через наклонную черту общая и нижняя облачность в баллах и высота нижней границы облаков в метрах; квадратными скобками обозначены формы облаков: Ci - перистые, Cs - перисто-слоистые, Cc - перисто-кучевые, Ac - высококучевые, As - высокослоистые, Sc - слоисто-кучевые, Ns - слоисто-дождевые, Cu - кучевые, Cb - кучево-дождевые. Подробнее классификацию облаков см. в Атласе облаков (PDF).
T - Температура воздуха - температура, измеренная на высоте 2 м над землей.
Td - Температура точки росы - температура, при понижении до которой содержащийся в воздухе водяной пар достигнет насыщения.
f - Относительная влажность воздуха - влажноcть воздуха, измеренная на высоте 2 м над землей.
Te - Эффективная температура - температура, которую ощущает одетый по сезону человек в тени. Характеристика душности погоды. При расчете учитывается влияние влажности воздуха и скорости ветра на теплоощущения человека.
Tes - Эффективная температура на солнце - температура, которую ощущает человек, с поправкой на солнечный нагрев. Характеристика знойности погоды. Зависит от высоты солнца над горизонтом, облачности и скорости ветра. Ночью, в пасмурную погоду, а также при ветре 12 м/с и более поправка равна нулю.
P - Атмосферное давление - приведенное к уровню моря атмосферное давление.
Po - Атмосферное давление - измеренное на уровне метеостанции атмосферное давление.
Tmin - Минимальная температура - минимум температуры воздуха на высоте 2 м над землей.
Tmax - Максимальная температура - максимум температуры воздуха на высоте 2 м над землей.
R - Количество осадков - Количество выпавших осадков за период времени, мм. При наведении курсора мыши на число - период времени, за который выпало указанное количество осадков.
R24 - Количество осадков - Количество выпавших осадков за 24 часа, мм.
S - Снежный покров - Высота снежного покрова, см. При наведении курсора мыши на число - состояние снежного покрова и степень покрытия местности в баллах.